Theta_e
288 288 288 288 288 287 287 287 287 287 287 287 287 287 288 288 288 288 289 289 288 288 288 288 288 288 288 288 289 289 290 291 291 291 291 291 292 292 292 292 292 292 292 292 292 292 292 293 293 293 293 293 293 294 294 294 294 294 295 296 297 297 296 296 296 296 297 297 298 298 299 299 299 299 299 299 298 298 298 298 298 298 299 299 299 299
288 288 288 288 287 287 286 287 287 287 286 286 287 287 287 287 287 287 288 288 288 288 288 287 287 287 287 288 288 289 290 290 291 291 291 291 291 291 291 291 291 291 291 292 292 292 292 292 292 292 292 292 293 293 293 294 293 294 294 295 296 296 296 295 295 296 296 297 297 298 298 298 298 298 298 298 298 298 298 298 298 298 298 298 299 299
287 287 287 288 287 286 286 286 287 287 287 287 287 287 287 286 286 286 287 287 288 288 288 287 287 287 287 288 288 289 289 290 290 290 290 290 291 291 291 291 291 291 291 291 291 291 291 292 292 292 292 292 292 293 293 293 293 294 294 295 296 296 295 295 295 295 296 296 297 297 297 297 297 298 297 297 297 297 297 298 298 298 298 298 298 299
286 286 286 287 287 287 286 286 287 287 287 287 287 287 287 286 286 286 286 287 287 287 287 287 287 287 287 287 288 289 289 289 290 290 290 290 290 290 290 290 290 291 291 291 291 291 291 291 291 291 291 292 292 292 292 293 293 293 294 294 295 295 295 295 295 294 295 295 296 296 296 296 296 296 296 296 297 297 297 297 298 298 298 298 298 298
286 286 286 287 287 286 287 287 287 287 287 287 287 287 286 286 286 286 286 286 286 287 287 287 287 287 287 287 287 288 289 289 289 289 290 290 290 290 290 290 290 290 290 290 291 291 291 291 291 291 291 291 291 292 292 293 293 293 294 294 295 295 295 294 294 294 294 294 295 295 295 295 296 296 296 296 296 296 297 297 297 298 298 298 298 298
286 287 287 287 286 286 287 287 287 287 286 286 286 286 286 286 286 286 286 286 286 286 286 286 287 287 287 287 287 288 288 288 289 289 289 289 289 289 289 290 290 290 290 290 290 290 290 290 290 290 291 291 291 291 292 292 293 293 293 294 294 294 294 294 294 294 294 294 294 294 295 295 295 295 295 296 296 296 296 296 297 297 298 298 298 298
286 287 287 287 287 287 287 287 287 286 286 285 285 286 286 286 286 286 285 286 286 286 286 286 286 287 287 287 287 288 288 288 288 288 289 289 289 289 289 289 289 289 289 289 290 290 290 290 290 290 290 290 291 291 291 292 292 293 293 293 294 294 294 294 294 293 293 294 294 294 294 295 295 295 295 295 296 296 296 296 296 297 297 298 298 298
285 286 287 287 287 287 287 287 287 287 286 285 285 284 285 285 285 285 285 286 286 286 285 285 286 286 286 287 287 287 287 287 287 287 288 288 288 288 289 289 289 289 289 289 289 289 289 289 289 289 290 290 290 291 291 291 292 292 293 293 293 294 294 293 293 293 293 293 294 294 294 294 295 295 295 295 295 295 295 296 296 296 297 297 298 298
285 285 286 286 286 286 285 286 286 287 286 285 285 284 283 283 283 284 284 285 285 285 285 285 285 285 286 286 286 287 287 287 286 287 287 287 287 288 288 288 288 288 289 289 289 289 289 289 289 289 289 289 290 290 291 291 291 292 292 293 293 293 293 293 293 293 293 293 293 294 294 294 294 294 295 295 295 295 295 295 295 296 296 297 298 299
285 285 285 286 286 285 285 285 286 287 287 286 285 285 284 283 282 282 282 283 284 284 284 284 284 284 285 286 286 286 286 287 287 287 288 287 287 288 288 288 288 288 288 288 288 288 289 288 288 289 288 289 289 290 290 291 291 291 292 292 293 293 293 293 293 293 293 293 293 294 294 294 294 294 295 295 295 295 294 295 295 295 296 297 297 298
285 284 284 285 285 286 285 285 285 286 287 286 285 285 284 283 282 281 280 281 282 283 284 284 284 284 284 284 285 286 286 285 286 287 287 287 287 288 287 287 287 287 288 288 288 288 288 288 288 288 288 288 289 289 290 290 290 291 292 292 292 292 292 292 292 292 292 293 293 293 294 294 294 294 294 294 295 294 294 294 295 295 296 297 297 298
284 284 284 284 285 285 285 285 285 286 286 284 283 283 283 283 283 282 280 280 281 282 282 283 284 284 284 284 284 285 285 284 284 285 286 286 287 287 287 287 287 287 287 287 287 287 287 288 287 287 287 288 288 289 289 289 290 291 291 292 292 292 292 292 292 292 292 293 293 293 294 294 294 294 294 294 294 294 294 294 295 295 296 296 297 297
284 284 284 284 284 284 284 284 284 284 284 283 282 281 281 282 283 282 281 281 281 281 282 282 283 284 285 285 285 284 284 284 284 284 284 285 285 286 286 286 286 286 286 286 287 287 287 287 287 287 287 287 288 288 289 289 290 290 291 291 292 291 291 291 291 292 292 292 293 293 293 293 294 294 294 294 294 294 294 294 295 295 296 296 296 297
283 283 283 283 283 283 283 283 282 282 282 282 282 282 282 282 282 282 281 281 281 282 282 282 282 283 285 285 285 285 284 283 283 283 284 284 285 286 286 285 285 286 286 286 286 286 287 287 286 286 287 287 287 288 288 289 290 290 291 291 291 291 291 291 291 291 292 292 292 293 293 293 293 294 294 294 294 294 294 294 294 295 295 296 296 296
282 282 282 282 282 282 282 282 282 281 282 282 282 283 283 282 282 281 281 280 281 281 282 281 282 282 284 285 285 285 284 283 282 282 282 284 285 286 286 285 285 285 285 285 285 286 287 287 286 286 286 287 287 287 288 289 289 290 290 291 291 291 291 291 291 291 291 292 292 292 293 293 293 293 293 293 294 294 294 294 294 295 295 295 295 295
282 282 281 281 281 282 282 282 282 281 282 282 283 282 282 281 281 281 280 280 280 281 280 280 280 281 282 284 285 285 284 283 282 282 282 282 284 286 286 285 285 285 285 285 285 285 286 286 286 286 286 286 287 287 288 289 289 290 290 290 290 290 290 290 290 291 291 291 292 292 292 293 293 293 293 293 293 293 294 294 294 294 295 295 295 295
282 282 281 281 281 281 282 282 282 282 282 282 282 282 282 281 281 281 280 280 280 280 279 279 278 278 280 282 284 285 284 282 282 281 281 282 283 285 287 285 284 284 284 284 285 285 286 286 286 286 286 286 287 287 288 288 289 289 290 290 290 290 290 290 290 290 291 291 291 292 292 292 292 293 293 293 293 293 293 293 294 294 294 294 294 294
282 282 281 281 281 281 282 282 282 282 282 281 281 282 282 282 281 281 281 280 280 279 279 278 278 278 278 279 281 283 284 283 281 281 281 281 283 285 286 285 285 284 284 284 285 285 285 285 286 286 286 287 287 287 288 288 289 289 289 289 289 289 289 290 290 290 291 291 291 291 292 292 292 292 292 292 292 292 293 293 293 294 294 294 294 294
282 281 280 280 281 281 282 281 281 281 281 281 281 281 281 281 281 281 280 280 280 279 279 278 278 279 279 279 281 283 284 283 282 280 280 280 282 284 286 285 284 284 284 284 284 285 285 286 286 287 287 287 287 287 288 288 288 289 289 289 289 289 289 289 290 290 290 291 291 291 291 291 291 292 292 292 292 292 292 292 293 293 293 293 293 293
281 281 280 280 281 281 281 281 281 282 282 282 282 281 280 280 280 280 280 280 280 280 279 279 279 279 280 280 281 283 284 283 282 280 279 280 281 283 285 284 284 283 283 284 284 285 285 285 286 286 287 287 287 287 287 288 288 288 289 288 289 289 289 289 289 289 290 290 290 291 291 291 291 291 291 291 292 292 292 292 292 293 293 293 292 292
281 281 281 281 281 281 280 281 282 283 283 283 282 281 280 279 279 279 279 280 279 279 279 279 279 279 280 280 281 282 284 283 281 279 279 280 281 282 284 284 283 282 282 283 284 285 285 285 285 285 286 287 287 287 287 287 288 288 288 288 288 288 288 289 289 289 289 290 290 290 290 290 291 291 291 291 291 291 292 292 292 292 292 292 292 292
281 281 282 282 282 281 281 281 282 283 284 283 282 280 279 279 278 279 279 279 279 279 279 279 279 280 281 281 282 283 285 283 281 280 279 279 280 281 283 283 283 282 282 282 283 284 284 284 285 285 286 287 287 287 287 287 287 288 288 288 288 288 288 288 288 289 289 289 289 290 290 290 290 290 290 291 291 291 291 292 292 292 292 291 291 291
282 282 282 282 282 282 282 282 283 283 284 283 282 281 280 279 279 279 279 279 279 279 279 279 280 281 282 282 283 284 285 284 283 281 279 278 278 280 282 283 282 281 281 282 283 283 284 284 284 285 286 287 287 287 287 287 287 287 288 288 288 288 288 288 288 288 289 289 289 289 289 290 290 290 290 290 290 290 291 291 291 291 291 291 291 291
283 283 282 283 283 283 283 283 283 283 283 283 283 282 282 281 281 281 281 280 280 280 280 280 281 281 282 283 283 283 284 284 283 281 279 278 278 279 281 282 281 281 281 282 282 283 283 283 284 285 286 286 287 287 287 287 287 287 287 287 287 287 288 288 288 288 288 288 289 289 289 289 289 289 289 290 290 290 290 291 291 291 291 290 290 290
283 283 283 283 283 284 283 283 283 283 283 283 283 282 282 282 282 282 282 281 281 280 280 280 280 280 281 282 282 282 283 284 283 281 279 278 278 279 281 281 281 280 280 281 282 282 282 282 284 285 286 286 286 286 287 287 287 287 287 287 287 287 287 287 287 288 288 288 288 288 289 289 289 289 289 289 289 290 290 290 290 290 290 290 289 289
284 284 283 283 284 284 284 284 284 284 284 284 283 282 281 281 281 281 280 280 279 279 278 278 278 279 280 280 280 281 282 284 283 282 279 277 277 278 280 281 281 280 279 280 281 282 281 282 283 284 285 285 286 286 286 286 287 287 287 287 287 287 287 287 287 287 288 288 288 288 288 288 288 289 289 289 289 289 289 290 290 290 289 289 289 289
284 284 284 284 284 284 283 283 284 284 284 284 283 282 281 280 279 279 278 278 278 277 277 277 277 278 278 279 279 280 281 283 283 282 280 278 277 277 279 280 280 279 279 279 280 281 281 282 283 283 284 284 285 285 286 286 286 286 286 286 287 287 287 287 287 287 287 287 287 288 288 288 288 288 288 288 289 289 289 289 289 289 289 288 288 288
283 283 283 283 283 283 283 283 283 283 283 283 283 283 281 279 278 277 276 277 277 276 276 276 276 276 277 277 278 279 281 282 282 281 280 278 277 277 278 279 279 279 278 278 279 281 282 282 283 283 283 284 284 284 285 286 286 286 286 286 286 286 286 286 287 287 287 287 287 287 288 288 288 288 288 288 288 289 289 289 289 289 288 287 287 286
282 282 282 282 282 282 282 282 282 282 283 283 283 282 281 279 278 277 276 277 276 276 276 276 276 276 276 276 277 279 280 281 281 281 280 278 277 277 278 278 278 278 278 277 278 279 280 281 282 283 282 283 283 283 284 285 285 285 286 286 286 286 286 286 286 286 287 287 287 287 287 287 287 287 288 288 288 288 288 289 288 288 287 286 286 286
282 282 282 282 282 282 282 282 282 282 282 282 282 282 281 279 278 278 277 277 276 275 275 275 275 276 276 276 276 277 279 280 281 281 279 277 276 276 277 277 277 277 277 276 276 276 277 280 281 282 282 282 282 283 283 284 284 284 285 285 285 285 286 286 286 286 286 286 287 287 287 287 287 287 287 287 288 288 288 288 288 287 286 286 285 285
281 281 281 281 281 281 282 281 281 282 282 282 282 281 281 280 279 278 278 277 276 276 275 275 275 275 275 274 274 275 276 279 280 281 279 277 276 276 277 276 276 277 277 276 274 273 274 277 279 281 281 281 282 282 283 283 283 283 283 284 284 284 285 285 286 286 286 286 286 286 286 287 287 287 287 287 287 287 288 288 288 287 286 285 285 284
280 281 280 281 281 281 281 281 281 281 281 281 281 281 280 280 279 279 278 278 277 276 275 275 275 275 275 274 274 274 275 277 280 281 279 277 276 276 276 276 276 276 277 277 275 274 273 274 276 279 280 280 281 281 282 283 283 283 283 283 283 283 285 285 285 285 285 286 286 286 286 286 286 286 287 287 287 287 287 288 287 287 286 285 284 284
280 280 280 281 281 281 281 281 281 281 281 280 280 280 280 280 280 279 279 278 278 277 276 275 275 275 275 275 275 275 276 278 279 281 280 277 276 276 276 276 275 276 276 277 276 275 274 274 275 277 278 279 280 281 282 282 283 283 283 282 282 282 284 284 284 284 285 285 285 285 286 286 286 286 286 286 287 287 287 287 287 287 286 285 284 284
280 280 280 280 280 280 280 280 280 280 280 280 280 280 280 280 280 280 279 279 279 278 277 276 276 275 275 274 275 275 276 278 280 281 280 278 276 275 275 275 275 275 275 275 275 276 275 275 275 276 276 278 279 280 281 282 282 282 282 282 282 282 283 283 283 283 284 284 284 284 284 285 285 285 285 286 286 287 287 287 287 287 287 286 285 284
280 280 280 280 280 280 280 280 280 280 280 280 280 280 279 280 280 280 280 280 279 279 279 278 277 276 276 275 275 275 276 277 279 281 281 278 277 276 275 275 275 275 275 274 274 275 274 275 275 276 275 277 278 279 281 281 282 282 282 282 282 282 282 282 282 283 283 283 283 283 283 283 284 284 284 285 286 286 286 287 287 287 287 287 286 285
280 279 279 279 279 279 279 279 279 279 279 279 279 279 279 280 280 280 280 280 280 280 280 279 279 279 278 277 276 276 276 278 279 280 280 279 277 276 275 275 275 275 275 274 274 274 274 274 275 276 276 276 276 278 279 281 281 281 281 282 282 282 282 282 282 282 282 282 282 282 282 282 283 283 283 284 285 286 286 286 286 287 287 287 287 286
279 279 279 279 279 279 278 279 279 279 279 279 279 279 279 280 280 280 280 280 280 280 280 280 280 280 280 279 279 278 278 279 280 280 280 279 278 277 275 275 276 276 275 275 274 274 274 274 274 275 275 275 276 276 278 279 280 280 280 281 281 281 282 282 282 282 282 282 281 282 282 282 282 282 283 284 285 285 285 286 286 286 287 287 287 287
279 279 279 279 279 278 278 278 278 279 279 279 279 279 280 280 280 280 281 280 280 280 280 280 280 280 280 281 280 280 280 280 280 280 280 280 279 278 277 276 276 277 277 276 275 275 274 274 273 274 274 275 276 277 277 278 278 278 279 280 281 281 281 282 282 282 282 281 281 282 282 282 282 282 282 283 283 283 283 284 285 286 286 286 286 287
278 278 278 279 278 278 278 278 278 279 279 279 280 280 280 280 281 281 281 281 281 281 281 280 280 280 280 281 281 281 281 281 281 281 280 280 279 279 278 277 277 277 277 277 277 276 275 274 274 274 274 274 275 276 277 278 278 278 278 279 280 280 281 281 281 281 281 281 281 281 281 281 281 281 281 281 281 282 282 282 283 284 285 285 285 286
278 278 278 279 279 279 279 279 279 280 280 280 281 281 281 281 281 281 281 281 281 281 281 281 281 281 281 281 281 281 281 281 281 281 281 280 280 279 279 278 277 277 277 277 277 277 276 275 275 275 275 275 275 276 276 277 277 278 278 277 277 278 279 280 281 281 281 281 280 280 280 280 280 280 280 280 281 281 281 282 282 283 284 284 284 284
278 278 278 279 279 279 280 280 280 281 281 281 280 280 280 280 280 280 280 281 281 281 281 281 281 281 281 282 282 282 282 282 282 281 281 281 281 280 279 279 278 278 278 277 277 277 277 276 276 276 276 276 276 276 276 277 277 278 278 277 276 277 279 280 280 280 280 280 280 280 280 280 280 280 280 280 280 281 282 282 282 283 284 284 284 283
278 278 279 279 279 280 280 281 281 281 281 281 280 280 280 280 280 280 279 279 280 280 280 280 280 280 280 281 282 282 282 282 282 282 282 281 281 281 280 279 279 278 278 277 277 277 277 277 276 276 276 276 276 276 276 276 277 278 278 277 277 277 278 279 280 280 280 280 280 280 280 280 279 279 279 280 280 281 282 282 283 283 284 284 284 284
279 279 279 280 280 280 281 281 281 281 281 281 280 280 280 280 280 280 279 279 279 279 280 280 280 279 279 279 280 281 282 282 282 282 282 282 281 281 280 280 280 279 278 277 277 277 277 278 277 277 277 277 277 276 275 276 277 277 277 277 277 276 276 277 278 279 279 279 279 279 279 279 279 279 279 280 280 281 282 282 283 284 284 284 284 284
279 280 280 280 281 281 281 281 281 281 281 280 280 280 280 281 280 280 280 279 279 279 279 280 279 279 279 279 279 279 280 281 282 282 282 282 282 281 281 280 280 280 279 278 277 277 277 277 277 277 278 278 277 276 276 276 276 276 277 277 277 276 275 276 277 278 278 279 279 279 279 279 279 279 279 280 280 281 281 281 282 282 283 284 284 284
280 280 280 280 280 280 280 280 280 280 280 280 280 280 280 281 281 280 280 279 279 279 279 279 279 278 278 278 278 278 279 280 280 281 281 282 282 282 281 281 280 280 280 279 278 278 277 277 277 278 278 278 277 276 276 276 276 276 277 277 277 277 277 278 278 278 278 278 278 279 279 279 279 279 278 279 279 280 280 281 281 282 282 283 283 283
280 279 280 280 280 279 279 280 280 280 280 280 280 280 280 280 280 280 280 279 279 279 279 279 279 278 277 277 277 278 278 278 278 279 280 280 281 281 281 281 280 280 280 279 279 279 279 278 278 278 277 277 277 276 276 276 276 275 276 277 277 277 277 278 278 278 278 277 278 278 279 279 278 278 277 278 278 279 280 280 281 281 282 282 283 283
279 279 279 279 279 279 279 279 279 279 279 279 280 280 280 280 280 280 280 279 279 279 279 279 278 278 277 277 277 277 277 277 277 278 278 279 279 280 280 280 280 280 280 280 280 280 280 280 279 278 277 276 276 276 276 276 276 276 276 276 276 276 276 277 277 278 278 278 278 278 278 278 278 277 277 277 278 278 279 280 281 281 282 282 282 282
279 279 279 279 279 279 279 279 279 279 279 279 279 279 280 280 280 280 279 279 279 279 279 278 278 277 277 277 277 277 277 276 276 277 277 278 278 279 279 279 279 280 280 280 281 281 280 281 280 279 278 277 276 276 276 276 276 276 276 276 276 276 276 276 277 278 278 278 278 278 278 277 277 276 277 277 277 277 278 279 280 281 282 282 282 282
279 279 279 279 279 279 279 279 278 278 278 278 278 279 279 280 280 280 279 279 279 279 278 278 277 277 277 277 277 277 277 277 277 277 277 277 278 278 278 278 278 279 279 279 280 280 280 281 281 281 280 279 278 277 276 276 276 277 277 277 276 276 276 276 277 277 278 278 278 278 278 278 278 277 277 276 276 276 277 278 279 281 281 282 282 282
279 279 279 279 278 278 278 278 278 278 278 278 278 278 279 279 280 280 279 279 279 278 278 278 278 277 277 277 277 277 277 276 276 277 277 277 277 277 277 277 277 277 277 277 278 278 278 279 280 281 281 281 280 278 277 276 276 276 277 277 276 276 276 276 277 277 278 278 278 278 278 278 278 278 277 276 276 276 276 277 278 280 281 281 282 282
279 279 279 279 278 278 278 278 278 278 278 278 278 278 278 279 279 279 279 279 279 278 278 278 278 277 277 277 277 277 277 276 276 276 277 277 277 277 277 277 276 276 276 275 275 275 275 275 276 277 279 281 281 280 278 277 276 276 276 276 276 277 277 277 277 278 278 278 278 278 278 278 278 278 277 276 276 275 276 276 277 278 280 281 281 281
Wind_Speed
2 2 3 4 5 4 5 7 8 7 6 6 7 7 7 8 8 9 11 11 11 10 9 9 9 10 10 12 14 16 17 18 18 18 18 18 18 18 18 18 18 18 18 18 18 18 18 18 18 18 18 18 18 18 18 19 19 20 21 22 22 21 21 20 20 21 21 22 22 23 23 23 23 23 23 23 22 22 22 22 22 22 23 23 23 23
2 2 2 5 5 4 4 7 8 8 8 8 7 8 8 9 8 8 8 10 10 10 9 9 9 10 10 11 13 15 17 17 18 18 18 18 18 18 18 18 18 18 18 18 17 17 17 18 18 18 17 17 18 18 18 19 19 20 21 22 22 22 21 20 20 21 21 22 22 23 23 23 23 23 23 23 23 23 22 22 22 22 23 23 23 23
2 2 3 4 5 5 4 6 7 8 8 8 8 9 10 10 9 8 8 9 9 9 9 9 9 9 10 9 12 15 16 17 18 18 18 18 18 18 18 18 18 18 18 17 17 17 17 17 17 17 17 17 17 18 18 19 19 20 21 22 22 22 21 20 20 21 21 22 22 23 23 23 23 23 23 23 23 23 23 23 23 23 23 23 23 23
3 3 3 3 4 4 4 5 6 7 7 8 8 9 10 9 8 8 8 9 9 9 8 9 9 8 8 8 10 13 16 17 17 17 17 18 18 18 18 18 18 18 17 17 17 17 17 17 17 17 17 17 17 18 18 19 20 20 21 22 22 22 21 21 21 21 21 22 22 22 23 23 23 23 23 23 23 23 23 23 23 23 23 23 23 23
3 3 3 3 3 3 4 5 6 6 7 7 8 8 9 8 7 8 8 9 9 9 8 8 8 8 7 7 9 12 16 17 17 17 17 17 17 18 18 18 18 17 17 17 17 17 17 17 17 17 17 17 17 18 18 19 20 21 21 22 22 22 21 21 21 21 21 22 22 22 22 22 22 22 23 23 23 22 22 22 23 23 23 23 22 22
3 3 3 3 3 3 3 4 5 5 6 6 7 7 7 8 7 8 8 8 8 8 8 7 7 7 7 7 10 12 15 16 16 17 17 17 17 17 18 18 18 17 17 17 16 16 16 17 17 17 17 17 17 18 19 19 20 21 21 22 22 22 21 21 21 21 21 22 22 22 22 22 22 22 22 22 22 22 22 22 22 22 22 22 22 22
3 2 2 2 2 2 2 3 4 5 5 5 5 6 7 7 8 8 8 8 7 7 7 7 7 7 7 8 10 11 13 14 15 15 16 16 17 17 17 17 17 17 17 16 16 16 16 16 17 17 16 17 17 18 19 19 20 21 21 22 22 21 21 21 21 21 21 22 22 22 22 22 22 22 22 22 22 22 22 22 22 22 22 22 22 22
3 3 3 3 3 2 2 3 4 5 6 5 5 6 6 7 7 8 9 8 8 7 6 7 7 7 7 8 9 10 10 11 11 12 13 14 15 15 16 17 17 17 16 16 16 16 16 16 16 16 16 16 17 18 19 20 20 21 21 22 22 21 21 21 21 21 22 22 22 22 22 22 22 22 21 21 21 21 21 21 21 21 21 21 22 22
4 4 3 3 3 3 3 3 4 5 6 6 6 6 7 7 7 8 8 8 7 7 6 7 7 7 7 7 8 9 9 9 10 10 11 11 12 13 14 15 15 16 16 15 15 15 16 16 16 16 16 16 17 18 19 20 20 21 22 22 22 21 21 21 21 22 22 22 22 22 22 22 22 21 21 21 21 21 21 21 21 21 21 21 22 22
4 4 4 3 3 3 3 4 4 5 6 6 6 6 6 8 8 8 8 7 7 7 6 7 7 7 7 7 7 8 9 10 10 11 12 12 12 13 13 13 13 13 15 15 15 15 15 16 16 16 16 16 17 18 19 20 21 21 22 22 22 22 21 21 21 22 22 22 22 22 22 22 21 21 21 21 21 20 20 20 20 21 21 21 22 22
4 4 3 3 3 3 3 4 4 4 6 6 5 5 6 7 8 8 9 8 8 7 7 7 7 7 7 7 7 8 8 8 9 10 11 12 13 13 13 12 12 13 14 13 13 14 14 15 15 15 15 16 17 18 19 20 20 21 22 22 22 22 22 22 22 22 22 22 22 22 22 22 21 21 21 20 20 20 20 20 20 21 21 22 22 22
3 3 3 3 3 3 4 4 4 4 5 5 5 6 6 7 7 8 9 9 9 8 8 7 7 6 6 6 7 7 8 8 8 8 9 9 10 10 10 10 10 11 11 11 11 12 13 14 15 14 14 15 16 18 19 20 21 21 22 22 22 22 22 22 22 22 22 22 22 22 22 21 21 21 21 20 20 20 20 20 21 21 22 22 22 21
3 3 3 3 3 4 4 4 4 5 5 6 6 7 7 7 7 7 7 8 8 8 8 7 7 6 6 5 6 6 7 8 8 8 8 8 8 8 7 7 8 8 8 8 8 9 11 13 13 13 13 14 16 18 20 20 21 22 22 22 22 22 22 22 22 22 22 22 22 22 21 21 21 21 21 20 20 20 20 21 21 22 22 22 21 21
3 3 3 4 4 4 4 5 5 6 6 6 6 7 6 7 7 7 7 7 8 8 7 7 7 6 4 4 5 6 7 7 8 7 8 7 7 7 7 7 7 7 7 7 7 8 10 10 10 10 12 13 15 17 19 20 21 22 22 22 22 22 22 22 22 22 22 22 22 21 21 21 21 21 21 21 20 20 20 21 21 22 22 22 21 21
4 4 4 4 4 4 5 5 6 6 6 6 6 6 7 7 7 7 7 8 8 7 7 7 7 6 4 4 5 6 7 7 7 8 8 8 7 7 7 7 7 7 7 7 7 7 9 8 8 8 9 12 14 16 18 19 20 22 22 22 22 22 22 22 22 22 22 22 22 21 21 21 21 21 21 21 21 21 21 21 21 22 22 22 21 21
4 4 5 5 5 5 5 5 5 6 6 6 7 7 7 7 7 7 7 7 7 7 7 7 7 6 4 4 5 6 7 8 8 8 8 8 7 7 7 7 7 7 7 7 7 7 7 7 7 8 9 12 15 17 19 19 21 22 22 22 22 22 22 22 22 22 22 22 22 21 21 21 21 21 21 21 21 21 21 21 21 22 22 21 21 21
4 4 5 5 5 5 5 5 5 6 6 6 6 7 7 7 7 6 6 6 6 5 5 6 6 5 4 4 4 6 8 8 8 8 8 8 8 7 7 7 7 7 7 7 7 7 7 7 7 7 8 12 15 18 19 20 21 21 22 22 22 22 21 21 21 22 22 22 22 21 21 21 21 21 21 21 21 21 21 21 22 22 22 21 21 20
4 4 5 5 5 5 5 5 5 5 6 6 6 7 7 6 6 6 6 6 5 5 5 5 5 4 5 5 5 6 8 8 8 8 8 8 8 7 7 7 7 7 7 7 7 7 7 7 8 8 9 13 16 18 19 20 21 21 21 21 21 21 21 21 21 21 22 22 22 21 21 21 21 21 21 21 21 21 21 21 22 22 22 21 21 20
4 4 5 5 5 5 5 5 5 6 6 6 6 7 7 6 6 6 6 5 5 5 5 5 5 5 5 5 6 7 8 8 8 8 8 8 8 7 7 7 7 7 7 7 7 7 7 8 9 10 12 15 16 17 18 20 20 21 21 21 21 21 21 21 21 22 22 21 21 21 21 21 21 21 21 21 21 21 21 21 22 22 22 21 21 20
4 4 4 4 5 5 5 5 5 6 6 6 6 6 7 7 6 6 6 5 5 5 5 5 5 6 5 6 7 7 7 7 7 7 8 8 8 8 7 7 8 8 8 7 7 8 8 8 9 10 12 14 15 17 18 19 20 21 21 21 21 21 21 21 21 21 22 21 21 21 21 21 21 21 21 21 21 21 21 21 22 22 22 21 21 20
4 4 4 4 4 4 4 5 6 7 7 7 6 6 6 6 6 6 6 6 5 5 5 5 5 6 5 6 7 7 7 7 7 6 6 7 7 7 7 7 8 8 8 8 8 8 8 9 8 9 10 13 14 16 18 19 20 20 21 21 21 21 21 21 21 21 21 21 21 21 21 21 21 21 21 21 21 21 21 22 22 22 22 21 21 20
4 4 4 5 5 4 4 5 6 8 8 7 6 5 5 6 6 6 6 6 6 6 6 6 6 7 7 7 7 7 6 6 6 6 6 6 7 8 7 7 8 8 8 8 8 9 9 9 8 9 10 13 14 16 17 18 19 20 21 21 21 21 21 21 21 21 21 21 21 21 21 21 21 21 21 21 21 21 21 22 22 22 22 21 20 20
4 4 4 5 5 5 5 5 6 7 7 7 5 4 4 5 5 6 6 6 6 6 7 7 7 7 7 7 7 6 5 4 5 5 5 7 8 8 8 8 8 8 8 8 9 9 9 9 9 9 10 13 14 15 17 18 19 20 20 21 21 21 21 21 21 21 21 21 21 21 21 21 21 21 21 21 21 21 21 22 22 22 22 21 20 19
4 4 4 4 4 5 5 5 5 5 6 6 5 4 4 5 5 6 5 6 6 6 7 7 7 7 6 6 5 5 4 4 4 4 5 6 7 8 8 8 8 8 8 8 9 9 10 9 9 8 8 11 13 15 17 18 19 20 20 20 20 20 20 21 21 21 21 21 21 21 21 21 21 21 21 21 21 21 21 22 22 22 22 21 20 19
4 4 4 4 5 6 5 6 6 6 6 5 5 5 5 6 6 6 5 5 5 6 7 7 7 6 5 5 5 4 4 4 4 4 5 5 7 8 8 8 8 8 9 9 9 9 10 9 9 8 7 9 12 15 17 18 19 20 20 20 20 20 20 20 21 21 21 21 21 21 21 21 21 21 21 21 21 21 22 22 22 22 21 20 19 18
5 5 6 6 7 8 8 8 9 9 10 8 6 5 5 6 6 5 5 4 5 6 7 7 7 6 5 5 5 4 4 4 4 5 5 5 7 8 8 7 8 8 9 9 9 9 10 9 9 8 7 8 11 14 17 18 19 19 20 20 20 20 20 20 20 21 21 21 21 21 21 21 21 21 21 21 21 21 22 22 22 22 21 19 18 17
7 7 8 8 8 9 9 9 10 11 12 11 9 7 6 6 5 5 5 5 6 6 7 7 7 6 6 5 5 5 5 4 4 5 6 6 7 7 7 7 8 9 9 9 9 9 10 9 8 7 7 7 9 12 16 18 19 19 19 19 19 19 19 20 20 21 21 21 21 21 21 21 21 21 21 21 21 21 22 22 22 21 19 17 15 13
7 7 7 8 8 9 9 9 9 10 11 12 11 10 7 6 5 5 5 5 6 6 7 7 7 7 6 6 6 6 5 4 4 6 7 6 6 6 7 7 8 8 9 8 8 9 9 8 8 7 7 8 9 11 14 16 17 18 18 18 19 19 19 20 20 21 21 21 20 20 20 20 21 21 21 21 21 21 22 22 22 20 17 14 11 9
5 6 6 7 7 8 8 8 9 9 10 11 11 10 7 5 5 5 5 5 6 6 6 7 7 6 6 7 6 6 5 4 5 7 7 6 6 6 7 7 8 8 8 8 7 7 6 6 6 7 7 9 10 10 11 13 14 14 15 17 18 18 19 19 20 20 20 20 20 20 20 20 20 21 21 21 21 21 22 22 21 18 13 11 9 8
5 5 5 6 6 7 7 7 7 8 9 10 10 9 6 5 4 4 5 5 5 6 6 6 7 6 6 7 6 5 4 4 6 7 8 6 6 6 7 7 8 8 7 7 6 6 5 5 5 6 8 10 10 10 9 10 10 11 11 14 15 16 17 19 20 20 20 20 20 20 20 20 20 20 20 21 21 21 22 22 19 15 10 9 8 8
5 5 5 5 5 5 5 5 6 6 7 8 8 7 6 5 4 4 4 5 5 5 6 6 6 6 6 6 5 5 4 4 6 8 8 6 6 6 7 7 7 7 7 6 6 6 6 5 5 6 8 9 9 9 9 9 9 9 9 10 11 12 16 18 18 18 18 18 19 19 20 20 20 20 20 20 21 21 21 21 19 14 9 9 8 8
5 4 4 4 4 4 4 4 5 5 6 6 6 6 6 5 5 4 4 4 5 5 5 6 6 6 6 5 5 4 4 5 7 9 8 6 5 5 6 7 7 7 6 6 6 6 6 6 6 7 8 9 9 9 9 9 9 9 10 10 10 11 14 16 16 16 15 16 17 18 19 19 20 20 20 20 20 21 21 21 19 15 10 9 9 9
4 4 4 4 4 4 4 4 5 5 5 5 5 5 5 5 5 5 4 4 4 4 5 5 6 6 6 6 5 5 5 5 7 9 9 7 5 5 6 6 7 7 6 6 6 5 5 6 6 7 8 8 8 8 8 9 9 9 10 10 10 10 13 13 13 13 13 14 14 15 17 18 18 19 19 20 20 20 21 21 19 16 12 10 9 9
4 4 4 4 4 4 4 5 5 5 5 5 5 5 5 5 5 5 5 4 4 4 4 5 5 6 6 5 5 5 5 6 8 9 9 7 5 5 6 7 7 7 7 6 6 6 5 6 7 7 7 7 7 7 8 8 9 9 9 10 9 10 10 11 11 11 11 11 11 11 13 14 15 16 17 18 19 20 20 20 19 17 15 12 10 9
4 4 4 5 5 5 5 5 5 6 5 5 5 6 5 5 5 5 5 5 4 4 4 4 4 5 5 5 5 5 6 6 8 9 9 7 6 5 6 6 6 7 7 7 6 6 5 7 8 8 8 7 7 6 7 8 9 9 9 9 9 9 10 10 10 10 11 10 10 10 10 11 12 13 14 16 18 19 20 20 19 18 17 15 13 10
4 4 5 5 5 5 5 6 6 6 6 5 5 5 6 5 5 5 5 5 5 5 5 5 4 4 5 5 5 6 6 7 8 9 9 7 6 5 5 5 6 7 7 7 7 6 6 7 8 9 9 8 7 6 7 8 8 9 9 9 9 9 9 10 10 10 10 10 10 10 10 10 11 11 12 16 18 20 20 19 18 17 17 16 15 13
4 4 5 5 5 5 5 5 5 6 6 5 5 6 6 6 6 6 5 5 5 5 5 5 5 5 5 5 6 6 7 7 7 8 9 7 6 6 5 5 6 7 7 7 7 7 7 8 8 8 8 7 7 6 7 8 9 9 9 9 9 9 9 9 10 10 10 10 10 10 10 11 11 11 12 16 17 18 17 17 17 16 17 16 16 15
4 5 5 5 5 5 5 5 5 5 5 5 6 6 6 6 6 6 6 5 5 6 6 5 5 6 7 8 8 8 8 8 8 9 9 8 7 6 6 6 6 7 7 7 7 8 8 8 8 8 7 7 7 8 9 9 9 9 9 9 9 9 9 9 10 10 9 10 11 11 11 11 11 11 11 13 13 12 12 12 13 14 15 14 14 14
5 5 5 5 5 5 5 5 5 5 5 5 5 6 6 6 7 6 6 6 6 6 6 6 6 6 7 8 9 9 9 8 9 9 9 8 7 6 6 7 7 7 7 7 7 7 7 7 7 7 7 7 8 8 8 8 9 10 10 9 9 8 8 9 10 10 10 10 11 11 11 10 10 10 11 11 11 11 11 11 11 12 12 11 11 12
5 5 5 5 5 5 5 5 5 5 5 5 6 6 6 6 6 6 6 6 6 6 7 7 7 6 7 7 7 7 7 7 7 8 8 7 7 6 6 7 7 7 7 7 7 7 7 7 7 8 8 8 8 8 8 8 9 10 11 9 8 8 9 9 9 9 9 10 10 11 10 10 10 10 10 11 11 11 10 10 10 11 11 10 9 9
5 5 5 5 5 5 5 5 5 5 5 5 5 5 5 5 5 6 6 6 6 6 6 6 6 6 6 6 5 5 5 5 6 7 7 8 8 7 6 6 7 7 7 7 7 7 7 7 8 8 8 8 8 9 9 9 10 11 11 10 9 9 10 10 10 9 9 10 10 10 11 11 11 11 11 11 10 10 10 10 11 11 10 9 9 8
5 5 5 5 5 5 5 5 5 5 5 5 5 5 5 5 6 6 6 6 6 6 6 6 6 6 6 5 5 5 5 5 6 7 7 8 9 8 8 7 7 7 7 7 7 7 7 8 8 8 8 8 8 8 8 8 9 10 10 10 10 10 10 9 9 9 10 10 10 10 11 11 11 11 11 11 10 10 10 11 11 12 11 9 8 8
5 5 5 5 5 5 6 6 5 5 5 5 5 5 5 5 6 6 7 7 7 7 7 7 7 7 7 6 6 6 5 5 6 7 8 8 9 9 9 9 8 8 7 7 7 7 7 8 7 7 8 8 8 8 9 9 9 9 9 10 10 9 7 7 8 9 10 10 10 10 10 10 10 11 11 10 10 10 10 10 11 11 11 9 9 8
4 5 5 5 5 5 5 5 5 5 5 5 5 5 5 6 7 7 6 6 7 7 7 7 7 7 7 7 7 6 6 6 7 8 8 9 9 10 10 10 10 9 8 8 7 7 7 7 7 7 7 7 8 8 8 8 8 9 9 9 10 9 8 8 9 10 10 10 10 10 11 11 11 11 10 10 9 9 9 9 9 9 10 9 9 8
4 5 5 5 5 5 6 6 6 6 6 6 6 6 6 6 7 7 6 7 7 7 7 7 7 6 6 7 7 7 6 7 7 7 7 8 10 11 10 10 10 9 9 8 8 7 7 7 7 7 7 7 7 7 8 8 9 9 9 9 9 9 9 9 9 10 10 10 10 11 12 12 12 11 10 10 9 9 9 9 10 10 9 9 9 8
4 5 5 5 5 6 6 6 6 6 6 6 6 6 6 7 7 7 7 7 7 7 7 7 7 7 7 7 7 7 7 7 7 7 7 7 8 9 9 9 9 9 8 8 8 8 7 7 7 7 7 7 7 7 7 8 8 9 9 10 9 9 9 9 9 9 10 10 11 11 13 13 12 11 10 10 10 9 9 9 10 10 10 9 9 9
5 5 5 5 5 6 6 6 6 6 6 6 6 6 7 7 7 7 7 7 7 7 7 7 7 7 7 8 8 8 8 9 8 8 8 8 8 8 8 8 9 9 9 8 8 8 8 7 7 7 6 6 6 6 7 7 8 9 9 9 9 9 9 9 9 9 10 10 11 12 13 13 12 11 11 10 10 9 9 9 9 10 10 9 9 9
5 5 5 5 5 6 6 6 6 6 7 7 7 7 7 7 8 8 7 7 7 7 7 7 7 7 8 8 8 8 9 9 9 9 8 8 8 8 8 8 8 9 9 9 9 8 8 7 7 6 5 5 6 6 7 8 8 8 8 9 9 9 9 9 9 9 9 10 11 12 13 11 10 10 11 11 11 10 9 9 9 9 9 9 9 9
5 5 5 6 6 6 6 6 6 6 7 7 7 7 7 7 8 8 7 7 7 7 7 7 8 8 8 8 8 9 9 9 8 8 8 8 8 8 9 9 9 8 8 8 8 7 7 7 6 4 3 4 5 7 8 8 8 8 8 8 8 9 9 9 9 9 9 10 12 12 12 10 9 9 10 11 11 11 11 10 10 9 9 9 9 9
5 5 5 6 6 6 6 6 6 6 7 7 7 7 7 7 7 7 7 7 7 7 7 7 8 8 8 8 8 9 9 9 8 8 8 8 8 8 9 9 9 9 8 8 7 7 6 5 4 3 2 2 4 7 8 8 8 8 8 8 8 8 9 9 9 10 10 10 11 12 12 10 9 9 9 10 11 12 12 11 10 9 9 9 9 10
5 5 5 5 6 6 6 6 6 6 7 7 7 7 7 7 7 7 6 7 7 7 7 7 7 8 8 8 9 9 9 9 9 9 8 8 8 9 9 9 9 10 9 8 8 7 6 6 5 4 2 3 6 8 7 8 9 9 8 8 8 8 8 9 9 10 10 10 10 10 11 10 9 9 9 9 10 11 12 11 11 11 10 10 10 11
Wind_Direction
349 355 358 355 353 355 7 4 360 354 350 348 346 344 341 340 338 337 339 339 339 339 340 340 341 342 344 347 348 348 348 349 350 351 352 352 352 352 352 352 352 352 352 352 352 352 352 352 352 352 351 349 349 348 348 348 347 345 343 342 345 349 353 353 350 347 344 343 342 342 342 342 342 342 342 341 341 340 339 338 337 336 335 335 334 334
352 356 1 358 357 359 4 4 1 356 351 347 345 343 341 339 338 338 338 338 339 339 339 340 341 342 344 345 346 347 347 348 349 350 351 352 352 352 352 352 352 352 352 352 352 352 352 353 353 352 351 350 349 349 348 347 346 344 342 342 345 349 353 352 350 347 345 343 342 342 342 342 342 342 342 341 340 340 339 338 337 336 336 335 335 334
355 359 4 357 358 0 3 2 0 356 350 346 344 342 341 340 339 338 338 338 338 338 339 341 341 342 343 344 345 346 346 347 348 349 350 351 352 352 352 352 352 352 352 352 352 352 352 352 353 352 351 350 349 349 348 347 345 344 342 342 345 349 352 352 350 348 345 344 343 342 342 342 342 342 341 340 340 339 339 338 338 337 337 336 335 334
1 1 1 352 354 359 3 1 358 354 349 344 343 342 342 341 339 338 337 337 336 337 338 341 343 343 342 343 343 344 345 345 347 348 349 350 351 351 351 351 351 351 351 351 352 352 352 352 352 352 351 350 349 348 347 346 345 343 342 342 345 348 352 351 350 348 345 344 343 342 342 341 341 340 340 339 339 339 339 338 338 337 337 336 335 334
10 4 355 346 347 354 2 0 357 352 346 343 342 342 342 340 338 337 336 335 335 336 338 341 344 345 343 343 342 343 343 344 346 347 349 350 350 350 350 350 350 350 351 351 351 352 352 352 352 352 351 350 349 348 347 346 344 343 342 343 345 348 351 351 349 347 345 343 342 341 341 340 340 339 338 338 338 338 338 338 338 337 336 335 335 334
10 4 350 345 344 346 351 359 358 353 345 343 342 342 341 338 337 336 336 336 336 337 338 340 342 344 344 343 342 342 343 344 345 346 348 348 349 349 349 349 349 349 350 350 351 351 351 352 352 351 351 350 349 347 346 345 344 343 342 343 345 347 350 350 348 346 344 343 341 340 340 339 339 338 338 338 338 338 338 338 337 337 336 335 335 334
1 358 347 345 344 344 343 356 359 355 347 342 340 341 340 338 337 337 336 336 337 338 338 339 340 342 344 344 343 342 343 343 344 345 346 347 347 347 347 347 348 348 349 349 350 350 351 351 351 351 350 349 348 347 345 344 343 343 342 343 345 347 349 349 347 345 343 342 341 340 339 338 338 337 337 337 338 338 338 338 337 336 336 335 334 333
354 353 350 350 348 345 344 355 359 356 349 342 339 340 342 340 338 336 334 336 338 340 341 339 339 341 343 344 344 344 344 343 343 344 345 345 345 345 345 345 346 346 347 347 348 348 349 350 350 350 350 349 348 346 345 344 343 342 342 343 345 347 349 348 347 345 342 341 340 339 338 338 337 337 337 338 338 338 338 338 337 336 336 335 334 333
353 352 352 353 351 347 344 353 358 357 350 345 342 341 342 342 339 336 335 338 341 344 344 342 340 340 342 343 344 345 345 343 342 342 342 342 342 342 343 343 344 344 344 344 345 346 347 348 349 349 349 348 347 346 344 343 342 342 342 343 345 347 348 347 346 344 342 340 339 339 338 338 338 338 338 338 339 339 339 338 337 336 336 334 333 333
356 354 351 352 353 351 345 347 352 355 353 348 346 345 343 343 340 338 336 339 343 346 346 344 341 339 338 341 343 345 344 341 339 339 338 338 337 338 340 341 341 341 341 341 342 343 344 346 347 347 347 347 346 345 344 343 342 342 342 344 346 347 348 347 345 343 341 340 339 338 338 338 338 338 339 339 340 340 339 339 338 337 336 335 334 335
357 354 349 349 352 354 351 348 348 349 351 349 348 348 348 347 343 339 337 338 341 343 345 343 340 337 336 338 341 344 343 340 338 337 336 336 336 337 339 340 340 339 338 338 339 340 342 343 344 345 345 345 345 344 343 342 342 342 343 344 346 347 347 346 344 342 341 339 339 338 338 338 338 339 340 340 341 341 340 339 339 338 337 336 337 340
355 352 349 347 350 353 355 350 348 349 351 351 351 351 352 352 347 340 335 336 338 340 341 339 336 333 333 336 340 343 343 340 337 335 333 333 335 337 339 340 340 338 337 336 336 338 340 341 342 343 344 344 344 344 343 342 342 342 343 345 346 347 346 345 344 342 340 340 339 339 339 339 339 340 341 341 342 342 341 340 339 339 338 338 341 344
355 349 347 349 352 356 356 353 352 353 357 358 355 352 350 348 344 340 334 333 335 337 337 333 330 328 329 336 341 344 342 339 335 332 331 331 333 336 338 339 339 338 336 333 334 336 338 340 340 341 343 343 343 343 342 342 342 342 343 345 346 346 346 345 343 342 341 340 340 339 339 339 340 341 342 342 343 343 342 341 340 339 339 341 344 348
358 352 350 353 357 0 1 358 356 357 359 358 355 350 344 341 340 338 334 333 334 334 333 329 327 325 325 340 348 349 344 338 334 331 329 328 330 333 335 336 336 335 333 331 331 334 336 336 337 339 342 343 343 342 341 341 341 342 343 345 345 346 346 344 343 342 341 340 340 340 340 341 341 342 342 343 343 343 343 342 341 340 340 342 346 349
359 355 355 357 359 2 4 1 359 358 357 354 349 344 339 339 340 339 336 334 333 333 332 329 327 325 326 342 354 355 348 340 334 331 328 326 326 329 332 332 332 331 331 330 330 331 333 333 334 336 339 342 342 341 340 340 341 342 343 344 345 346 345 344 343 342 341 341 341 341 341 342 342 343 343 343 344 343 343 342 341 340 340 344 347 349
3 0 358 357 358 1 5 2 359 356 352 349 346 343 341 341 341 339 335 332 332 332 333 332 329 327 326 341 355 358 352 343 335 330 326 323 323 326 331 330 329 329 330 329 329 329 330 331 332 333 335 337 338 338 338 339 340 342 343 344 345 345 345 344 343 342 342 342 341 342 342 342 343 343 344 344 344 344 343 342 341 341 342 345 348 349
9 6 1 357 356 358 2 2 358 355 350 347 344 342 340 339 337 335 332 331 331 332 334 332 330 327 324 332 350 358 355 344 335 329 324 321 321 324 329 328 328 327 328 328 328 329 330 330 330 330 330 333 334 335 337 339 340 341 342 343 344 345 345 344 343 343 342 342 342 342 342 343 343 344 344 345 344 344 343 342 341 341 343 345 347 348
15 13 4 357 353 353 357 359 357 353 348 346 343 339 336 335 333 331 330 330 331 331 330 326 324 321 321 325 338 349 352 343 334 326 322 319 318 321 327 327 327 325 325 326 328 329 330 329 328 326 324 328 330 333 336 338 340 341 342 343 344 345 345 344 344 343 343 343 343 343 343 343 344 345 345 345 345 344 344 343 342 343 343 346 347 347
18 17 8 358 351 350 353 356 353 350 348 346 341 335 332 332 332 331 330 330 330 328 324 319 315 313 314 316 326 337 344 338 331 325 321 318 317 320 327 329 327 325 323 325 327 330 330 327 323 321 320 323 327 331 335 337 339 340 341 343 344 345 345 344 344 344 344 343 343 343 343 344 345 345 346 345 345 345 344 343 343 343 344 346 346 346
18 19 11 357 348 346 351 353 351 347 346 343 338 333 331 330 330 330 330 329 327 324 318 312 310 309 310 312 318 326 335 333 329 324 320 316 315 319 329 330 327 324 322 325 328 331 329 325 321 318 318 322 326 330 334 336 338 340 341 342 343 344 345 345 344 344 344 344 344 344 344 345 345 346 346 346 345 345 344 344 343 344 345 346 346 345
17 18 10 357 349 346 348 347 344 342 342 340 336 332 331 329 328 327 328 326 325 321 317 311 308 307 308 309 312 317 324 328 328 325 318 313 316 321 330 330 326 323 321 325 328 330 327 323 319 316 316 321 326 330 333 335 337 339 341 342 343 344 344 344 345 344 344 344 344 344 344 345 346 346 346 346 346 345 344 344 344 344 345 345 345 344
17 14 7 360 354 350 345 340 337 338 341 339 336 334 332 328 325 323 323 323 322 319 315 308 303 299 298 297 298 302 310 319 325 325 316 314 317 322 329 327 324 321 322 325 328 327 325 320 316 313 313 319 325 329 332 334 336 338 340 341 342 343 344 344 344 345 345 345 344 345 345 346 346 346 346 346 346 345 345 344 344 345 345 345 344 343
21 13 6 1 358 352 344 340 338 338 340 337 336 334 330 320 315 312 314 315 314 310 306 299 293 289 284 283 286 292 303 320 328 326 318 316 319 322 326 324 323 322 324 326 326 325 321 317 313 312 312 321 326 329 332 334 336 337 339 340 341 342 343 344 344 345 345 345 345 345 345 346 346 346 347 346 346 345 345 344 345 345 346 345 343 342
23 17 10 4 0 354 346 343 342 340 339 336 336 333 324 310 302 299 298 301 302 301 297 293 289 287 284 289 296 306 321 336 339 335 325 318 318 319 321 323 323 324 324 326 324 322 318 315 312 311 311 322 327 330 332 334 335 337 338 339 340 341 342 343 344 344 345 345 345 345 345 346 346 347 347 346 346 345 345 345 345 346 346 345 343 341
26 21 16 7 2 359 354 349 347 345 344 341 340 336 325 312 302 295 292 298 303 305 302 299 298 301 307 317 323 326 332 343 349 348 338 323 317 315 317 323 325 324 323 323 322 320 316 313 311 310 312 323 329 331 332 334 335 336 337 338 339 340 341 342 343 344 344 344 344 345 345 346 346 347 347 346 346 345 345 345 346 346 346 344 342 339
29 25 20 11 5 2 359 355 352 352 352 351 350 344 331 319 311 306 308 319 322 319 313 310 312 317 324 327 328 327 327 341 357 1 349 328 317 314 317 325 327 326 322 321 321 319 315 312 310 312 319 328 331 332 332 333 334 335 336 337 338 339 340 341 342 343 344 344 344 344 345 346 346 346 347 346 346 346 345 346 346 346 346 343 341 339
30 26 21 13 7 3 1 358 356 355 356 357 357 354 342 329 324 325 333 339 334 326 319 319 321 325 328 330 328 325 321 337 2 9 356 331 316 314 319 328 330 327 322 320 319 317 312 308 309 315 327 333 333 331 331 331 332 334 335 336 337 338 339 340 341 342 343 343 343 344 344 345 346 346 346 346 346 346 346 346 346 346 345 343 340 337
28 23 17 11 6 1 359 356 355 356 356 358 359 359 353 342 336 337 341 340 333 326 322 324 326 327 329 329 325 319 315 338 7 11 354 331 316 313 322 329 330 327 322 318 315 312 308 307 312 322 333 335 332 329 328 330 331 333 334 335 336 337 338 340 341 341 342 342 342 343 344 344 345 346 346 346 346 346 346 346 346 346 345 343 339 335
20 16 11 7 2 358 355 352 352 353 355 357 359 1 0 352 344 340 338 335 330 326 324 325 326 327 326 323 317 313 313 351 12 9 351 332 317 315 323 328 329 328 325 319 315 312 309 312 321 330 336 333 330 326 326 329 331 333 334 335 336 336 338 339 340 340 340 341 341 342 343 344 344 345 345 345 345 345 346 346 346 346 344 341 338 334
7 3 2 1 357 353 350 348 347 349 353 355 357 359 1 356 347 339 334 331 328 326 324 324 324 325 325 321 317 315 321 359 10 5 350 333 322 319 325 327 329 329 329 324 320 317 316 320 327 333 334 331 328 326 326 330 332 333 333 334 334 336 337 338 339 339 339 340 340 341 342 343 343 344 344 344 344 345 345 346 346 345 342 339 336 334
358 356 355 354 352 349 347 345 345 347 350 353 355 357 357 354 348 340 334 332 330 326 322 321 322 323 324 322 321 321 326 348 358 358 348 332 322 320 326 325 326 328 332 329 325 321 319 321 327 332 332 328 326 325 327 330 332 333 333 333 333 334 336 337 337 337 338 339 339 340 341 342 342 342 342 343 343 343 344 344 344 343 341 338 335 334
354 353 353 350 349 347 347 346 346 347 350 352 354 354 353 351 347 342 337 334 329 324 319 317 317 317 319 317 315 314 317 331 344 349 345 331 321 318 324 322 322 324 328 326 321 317 314 317 322 327 329 326 324 324 326 330 332 334 334 333 331 332 335 336 336 336 337 338 339 339 340 341 341 341 341 341 341 341 342 342 342 342 340 337 335 333
352 352 354 351 350 350 350 351 351 351 352 352 352 351 349 347 344 341 338 334 329 324 318 315 314 314 314 310 306 305 308 320 334 341 341 331 321 317 321 320 320 321 323 321 317 311 305 309 314 318 322 322 322 322 325 330 333 335 334 333 331 331 333 335 335 335 336 336 337 338 339 339 339 339 339 339 339 339 339 339 340 340 339 337 334 332
355 357 358 356 355 354 354 353 354 353 353 353 351 349 346 342 340 338 337 334 329 323 317 314 312 312 312 310 307 306 308 318 330 336 337 331 323 318 319 320 321 322 323 321 318 314 305 308 311 315 317 318 319 320 325 331 334 335 333 332 331 331 332 334 334 334 334 335 335 336 338 338 338 337 337 336 336 336 335 336 336 337 338 336 334 332
0 4 5 1 358 356 355 355 355 355 354 353 351 348 343 339 336 335 335 333 329 323 314 308 306 306 307 308 309 310 313 320 327 332 333 331 325 319 318 320 322 323 322 321 320 318 313 313 314 315 314 314 316 320 327 331 332 332 331 331 331 331 331 333 333 333 333 334 335 336 337 336 335 334 334 334 333 332 332 332 333 334 336 335 334 332
4 7 7 3 360 356 354 354 355 354 354 352 348 345 340 336 332 331 330 328 324 317 310 303 298 296 296 299 303 306 310 316 323 328 331 330 326 321 317 318 321 322 320 321 321 320 317 314 313 314 314 315 317 321 327 330 330 329 329 331 331 331 330 332 332 332 332 333 334 335 336 335 334 332 330 330 330 329 329 329 330 332 333 333 333 331
7 7 7 4 360 356 353 353 353 352 351 348 344 340 336 332 329 327 324 321 316 310 304 300 295 290 287 287 291 296 301 308 316 323 328 327 324 319 314 313 317 319 320 320 321 320 317 314 314 315 315 317 319 322 325 328 329 329 331 332 331 330 330 332 332 332 331 333 333 334 334 333 332 330 328 328 328 327 327 328 329 330 331 331 330 330
9 7 5 2 358 354 351 350 350 349 345 342 338 335 331 329 326 323 319 315 308 303 301 300 296 290 283 280 280 282 286 297 307 316 323 324 321 316 311 310 313 316 318 318 317 316 315 315 316 317 317 317 318 319 322 325 327 329 330 330 328 328 330 332 332 332 332 332 332 332 332 332 331 330 328 328 328 328 327 327 328 329 329 329 328 328
7 4 2 0 356 352 349 347 345 342 338 335 332 329 326 325 323 321 318 315 310 307 306 304 299 292 283 276 274 275 280 292 303 312 319 320 318 314 311 310 312 315 316 314 312 310 310 311 313 315 316 316 317 319 322 324 326 327 327 326 327 329 332 332 332 332 333 332 332 331 332 332 331 330 329 329 328 327 325 324 325 327 328 327 326 326
2 359 358 355 352 347 343 340 336 333 330 326 325 325 325 325 324 322 320 319 317 315 313 309 303 297 290 283 278 277 280 288 299 307 314 316 315 312 311 311 313 314 315 313 309 307 306 307 307 308 310 311 314 317 321 324 326 328 328 328 328 331 332 331 330 331 333 333 332 331 330 331 330 330 329 327 325 324 322 322 322 324 325 325 325 325
358 354 351 347 343 338 333 331 328 327 325 323 325 329 332 332 329 328 326 326 325 322 319 316 312 307 303 298 295 293 294 296 302 308 313 317 317 317 315 314 313 314 314 312 311 309 307 306 307 307 309 310 312 314 316 320 324 327 329 328 326 325 325 326 328 331 333 331 331 330 330 329 329 329 327 324 321 318 317 317 317 319 320 321 323 325
353 348 344 340 336 332 327 325 324 324 324 325 329 334 338 337 334 332 331 331 330 330 329 327 324 321 319 319 322 327 331 325 322 320 321 323 325 325 323 321 318 316 314 313 312 311 309 308 308 309 311 313 314 315 316 318 323 326 329 327 325 321 318 324 329 333 332 331 330 330 330 329 329 327 325 321 318 315 313 314 315 316 317 318 320 322
348 342 337 335 332 328 324 325 326 328 328 331 334 338 341 339 337 334 332 332 332 332 331 331 329 327 325 328 333 339 342 338 334 332 331 331 331 330 329 327 324 321 318 315 313 312 311 309 309 310 313 315 315 315 315 318 322 326 328 328 327 326 324 328 331 331 330 329 329 330 330 329 326 323 320 317 314 313 313 314 314 314 315 317 318 319
343 338 335 334 331 330 329 332 333 334 333 334 337 339 341 340 338 336 334 333 333 332 332 333 330 328 328 332 336 338 340 340 340 339 338 337 337 337 334 331 328 325 321 317 314 313 312 312 312 314 316 317 317 316 316 320 323 326 328 328 328 326 323 322 324 326 326 328 328 329 329 327 324 320 317 315 314 315 316 316 315 315 315 316 317 318
342 340 338 337 336 336 337 338 337 335 335 336 338 340 341 342 340 338 338 336 335 334 334 334 333 332 334 336 338 339 339 340 340 340 338 340 340 340 338 335 331 327 323 318 315 313 312 313 315 317 319 318 317 317 319 323 324 325 325 327 325 322 319 318 321 324 326 327 327 328 329 327 323 320 317 317 318 319 318 318 317 316 316 317 319 320
345 345 343 341 340 340 339 338 337 336 336 337 339 341 341 342 340 339 339 337 336 335 335 336 336 337 337 338 339 339 339 339 339 339 339 341 342 343 342 338 334 329 324 319 315 311 309 310 313 316 317 316 316 318 322 326 327 326 325 326 325 323 321 321 324 325 326 326 325 326 327 326 323 321 319 319 319 318 318 317 316 316 316 318 320 321
347 346 344 341 339 339 338 337 337 337 338 340 340 341 341 341 340 340 339 339 337 335 335 337 338 339 339 340 341 341 340 339 338 338 338 340 342 343 343 339 335 330 324 319 316 313 310 308 308 309 310 313 317 321 327 330 330 328 326 326 326 325 324 324 326 327 326 325 325 325 325 325 324 322 320 319 318 317 316 316 315 315 316 319 321 322
346 346 343 340 338 338 338 338 339 340 340 340 340 339 340 340 341 341 340 340 339 337 337 339 339 339 339 341 343 343 341 338 336 335 337 339 341 342 342 340 336 331 326 323 319 316 313 308 302 297 297 306 315 323 328 331 331 329 326 326 326 325 324 324 325 326 325 324 324 324 324 324 324 322 321 320 318 317 317 316 316 316 318 320 322 322
345 345 344 340 339 339 339 339 340 340 341 340 339 338 337 338 340 341 340 339 339 339 339 340 339 339 339 341 343 343 341 338 335 335 337 339 340 340 341 340 337 334 330 328 326 324 320 312 303 290 276 297 315 325 329 331 330 329 326 326 326 326 324 324 324 325 325 324 323 323 324 322 320 319 319 318 317 316 316 316 316 318 320 321 322 322
346 346 345 342 340 340 339 339 339 339 339 339 339 337 335 336 339 341 341 340 339 339 339 339 338 338 339 341 343 343 341 338 336 336 338 339 340 340 340 340 339 338 335 336 336 334 332 327 320 301 248 295 328 335 332 330 329 327 327 328 327 326 324 323 324 325 326 324 323 323 323 322 321 320 320 318 316 315 315 316 317 319 321 322 322 320
346 346 346 343 341 340 339 337 337 337 338 338 337 336 334 336 339 342 343 342 341 340 339 339 338 337 339 340 342 342 341 338 337 337 338 339 339 340 341 341 342 341 340 341 341 341 341 340 338 333 323 341 350 349 337 331 329 328 328 328 328 327 325 323 324 325 325 324 323 322 323 323 324 324 323 320 317 316 316 317 318 319 322 322 321 320